Location: �clusier
(49.9361°N, 2.7869°E)
Time: 04:09:19
(UTC+00:00)

Cosmos 1943 Rocket - Pass Details

Date: 02 November 2021
Orbit: 811 x 844 km, 71.0° (Epoch: 07 December)

Event Time Altitude Azimuth Distance (km) Brightness Sun altitude
Rises 17:31:42 0° 333° (NNW) 3,415 5.6 -11.3°
Reaches altitude 10° 17:34:57 10° 351° (N) 2,476 4.6 -11.8°
Maximum altitude 17:38:52 19° 35° (NE) 1,931 3.7 -12.4°
Enters shadow 17:40:55 16° 61° (ENE) 2,092 3.7 -12.8°
